RH
19 33 62 84 89 97 99 95 95 86 74 63 56 63 66 59 47 38 31 35 38 39 47 46 45 48 55 51 39 32 26 30 34 35 37 35 33 33 31 25 20 17 14 14 13 12 11 11 10 11 12 12 12 13 13 16 21 25 29 30 28 28 31 32 32 33 35 39 45 52 52 50 48 46 49 51 52 56 65 66 59 49 43 48 48 43 44 43 43 43 44 43 40 36 30 26 27
20 41 69 83 89 97 100 98 94 87 78 65 60 64 57 44 40 34 31 35 28 28 39 43 49 53 64 62 53 49 30 28 35 30 28 27 28 30 30 26 22 18 16 15 13 12 10 10 9 10 11 11 11 10 11 12 17 23 27 29 29 29 31 34 35 38 41 46 52 58 57 56 54 50 52 54 58 65 72 72 67 59 54 56 54 50 50 49 50 48 46 44 41 36 29 26 27
23 48 73 82 86 91 97 99 94 87 80 64 58 55 44 37 34 29 34 41 26 18 28 41 49 50 60 60 60 57 30 27 33 29 29 27 29 32 32 30 25 20 18 16 14 12 10 10 10 10 11 13 15 15 16 16 20 25 29 31 33 35 37 40 41 44 47 49 55 60 62 63 59 56 55 55 59 67 75 78 76 70 63 60 56 54 54 53 52 49 47 45 40 35 30 29 29
29 54 74 83 82 81 84 91 91 85 80 65 54 43 31 32 29 25 31 43 35 20 23 32 38 42 49 53 56 47 24 26 31 30 36 36 37 37 36 32 27 21 18 16 13 11 11 12 12 14 18 25 28 27 25 24 28 33 39 42 43 45 47 50 50 54 54 55 60 62 66 65 63 65 65 62 63 69 78 84 84 78 70 63 59 56 57 55 50 48 46 43 39 32 30 32 31
38 60 70 82 84 83 82 84 87 81 78 66 51 36 24 26 26 25 24 32 33 21 21 24 28 34 37 38 38 33 20 21 25 29 38 41 42 42 38 33 27 22 19 16 12 13 17 20 22 23 26 33 38 38 36 37 42 48 52 54 56 56 58 62 64 67 66 66 70 69 68 66 68 74 75 73 73 76 82 88 88 84 74 66 63 60 58 53 49 49 47 41 36 30 29 31 29
49 61 69 84 86 87 93 90 87 81 78 61 42 31 22 24 25 24 23 26 24 18 21 20 22 25 24 24 24 25 22 20 23 28 37 39 43 45 38 33 27 22 19 15 16 20 23 25 25 23 25 35 44 48 48 50 54 59 62 63 64 62 63 66 69 72 70 71 75 73 70 70 75 78 78 79 81 85 87 89 88 86 78 70 69 63 57 54 52 51 46 38 33 31 29 26 24
54 62 68 85 88 88 98 98 90 83 76 53 29 23 22 24 24 21 24 29 24 19 18 17 19 19 17 19 21 22 22 23 28 37 42 37 40 44 36 31 27 23 20 18 21 24 26 28 28 28 32 40 47 51 53 55 59 60 61 63 64 63 62 64 72 74 70 74 78 75 72 75 79 78 81 85 89 91 89 87 86 85 79 73 72 65 60 57 55 52 43 35 32 32 27 21 20
65 69 68 82 91 91 99 100 92 84 70 42 19 16 20 23 24 23 24 25 23 20 16 17 19 19 17 19 21 20 22 27 36 45 41 33 35 38 32 29 26 23 20 19 24 27 33 38 40 42 45 48 52 56 58 58 57 53 52 56 58 58 58 64 79 78 69 76 79 76 76 78 78 77 81 86 90 89 86 86 85 82 76 73 74 73 71 65 60 53 42 30 27 27 23 20 22
79 76 73 84 91 91 97 101 92 85 63 32 17 14 21 24 24 27 24 21 20 19 17 16 18 19 17 17 22 22 26 34 41 41 34 29 31 32 30 29 27 23 20 21 28 35 41 44 47 49 51 55 58 61 60 55 50 48 50 53 55 57 57 61 76 75 67 72 74 75 78 78 78 78 81 84 86 84 82 84 82 77 73 73 77 80 79 71 61 51 40 29 23 22 23 26 28
82 79 81 86 90 94 95 100 93 85 60 29 19 15 23 27 26 30 26 23 19 17 17 15 15 18 17 18 25 27 32 40 41 35 29 29 29 31 31 31 29 26 24 26 32 40 46 48 48 49 52 56 58 56 52 48 45 47 51 54 55 58 57 57 70 75 68 70 72 73 76 76 76 77 79 79 79 76 76 79 78 73 71 74 78 82 79 69 58 49 41 29 22 22 26 33 36
73 71 80 86 89 94 92 100 97 85 62 32 21 17 26 27 27 35 29 25 20 18 19 16 14 15 18 22 27 30 37 43 37 30 28 29 30 32 31 32 32 30 29 31 37 44 47 48 49 52 56 55 52 47 45 45 44 48 51 52 54 55 55 53 63 70 66 67 71 71 71 72 70 71 74 76 73 70 70 72 71 69 71 77 81 81 74 63 56 48 37 26 22 25 29 33 36
57 57 70 86 92 93 90 100 99 91 70 38 23 19 25 25 29 38 35 30 22 19 18 14 13 14 20 25 29 33 40 44 36 27 27 30 31 30 29 31 31 31 33 37 44 47 49 52 56 58 55 50 46 43 41 42 45 48 49 48 49 52 50 46 49 56 58 61 65 66 66 68 68 70 72 72 69 65 66 67 67 70 75 81 82 74 61 52 45 36 26 23 26 28 30 30 28
42 48 61 81 92 93 91 97 98 97 80 44 26 23 23 27 33 40 43 40 27 19 15 13 11 14 22 27 31 34 39 41 33 26 28 31 29 26 25 29 32 35 40 46 51 54 58 61 61 55 50 47 44 41 39 41 47 47 46 44 45 47 44 41 42 46 52 61 65 62 61 63 64 66 66 63 62 64 66 68 70 73 79 80 72 58 45 37 29 24 24 26 28 28 27 23 19
40 44 62 84 88 89 93 97 97 101 90 56 34 28 26 32 38 39 46 47 31 19 14 13 13 15 24 29 31 34 36 35 32 31 31 28 26 23 24 31 37 43 49 54 60 64 63 59 54 51 50 50 44 40 37 41 48 47 44 43 42 44 42 40 41 41 45 55 62 59 57 58 55 55 55 55 58 65 69 70 72 74 76 70 55 40 30 26 23 24 26 25 24 21 17 13 11
54 52 76 94 86 86 96 99 98 101 94 66 42 30 29 38 42 40 44 41 30 26 19 13 15 18 26 31 31 33 33 34 38 40 34 28 26 25 29 38 46 52 55 60 63 62 57 51 50 51 51 48 44 39 36 42 50 47 44 44 43 43 42 40 41 42 40 42 47 48 46 46 47 48 48 52 58 65 69 70 71 73 69 55 37 27 24 25 25 24 21 18 15 12 9 7 6
53 51 81 97 87 87 95 100 99 101 91 67 47 30 33 43 45 46 45 39 36 38 26 13 14 17 25 32 32 30 32 42 49 44 36 33 34 35 39 46 53 57 59 60 58 53 51 50 52 51 47 44 42 38 36 43 49 47 46 45 44 44 44 43 44 44 41 40 39 38 37 38 42 44 45 50 58 65 69 70 71 67 54 37 26 25 25 24 20 16 12 10 8 6 6 5 5
41 37 71 89 84 82 91 97 97 102 86 65 51 32 39 49 46 48 46 45 46 41 29 17 16 16 25 33 32 29 33 48 54 47 42 39 41 44 46 52 58 60 58 57 54 51 50 50 50 48 43 40 38 35 35 39 43 44 45 43 45 49 47 46 45 41 40 40 37 37 37 39 39 40 46 53 60 65 67 68 62 48 33 26 25 24 21 16 12 9 7 6 5 5 6 7 9
35 34 56 68 73 78 90 95 95 102 80 62 60 45 50 56 49 47 46 52 50 40 34 25 16 17 26 33 32 31 37 52 54 51 50 47 47 48 51 57 62 62 59 55 54 53 48 45 46 45 40 37 36 34 34 36 38 40 42 44 49 50 45 42 40 36 35 37 37 38 38 39 37 40 52 60 62 64 63 55 41 29 24 25 23 19 14 9 7 6 6 6 7 8 11 14 17
29 35 47 54 67 79 91 96 99 100 75 62 65 60 63 58 48 45 43 46 43 37 34 24 13 17 28 31 32 32 38 52 56 54 55 53 51 51 53 58 61 61 58 56 55 51 44 40 42 44 42 39 37 33 32 34 36 39 41 44 47 43 37 34 33 32 34 38 39 37 37 38 35 39 53 61 61 57 48 35 25 23 23 21 16 11 8 5 5 6 7 9 12 17 19 21 21
28 34 42 46 56 72 82 91 101 91 70 64 62 66 68 55 47 45 38 35 39 41 32 18 11 18 28 30 31 32 36 51 57 55 54 53 52 52 55 59 60 58 57 57 55 49 41 36 38 42 42 40 37 32 30 32 33 36 39 41 39 32 29 29 30 33 37 41 39 34 34 35 31 32 41 45 43 37 28 23 22 22 18 13 9 7 5 5 5 6 8 12 18 22 23 22 21
30 37 49 55 58 70 76 82 93 80 66 66 63 68 65 54 54 50 40 30 34 47 39 19 10 16 27 29 30 31 37 52 58 54 54 52 48 52 58 62 62 58 56 57 54 47 41 37 39 41 41 39 37 33 31 32 33 33 36 39 35 28 26 29 34 38 39 39 34 29 30 29 26 24 24 25 24 22 21 21 19 15 10 7 5 4 4 5 7 10 13 18 21 23 23 22 21
27 39 58 68 68 77 82 80 83 72 67 69 66 69 60 54 59 49 39 27 26 44 40 18 9 14 23 28 29 30 34 48 55 53 55 53 47 52 60 63 62 58 58 59 55 47 40 38 40 42 42 42 40 36 34 32 32 31 34 38 33 27 27 32 38 38 35 33 28 25 25 24 22 19 19 19 20 21 19 16 11 8 6 4 5 6 7 9 13 18 20 21 22 23 23 23 22
24 43 58 66 71 82 89 87 85 75 71 72 70 67 52 50 58 46 37 29 28 40 33 15 11 13 19 25 26 27 29 39 49 48 50 51 49 53 58 59 56 55 59 59 51 42 37 36 38 38 38 40 37 34 33 30 28 28 32 34 29 27 28 30 33 29 25 25 23 22 21 20 19 19 20 20 19 16 12 8 6 5 4 5 7 11 15 18 21 23 23 22 22 22 22 22 22
25 42 56 63 69 85 95 95 96 87 75 71 73 73 58 50 53 48 41 31 31 39 28 15 13 13 17 23 23 24 27 34 44 46 43 44 49 53 54 51 49 54 60 56 46 38 39 41 39 37 35 35 32 28 27 24 23 22 24 26 24 26 28 26 23 19 15 15 15 14 14 14 14 14 13 12 10 8 7 7 6 5 6 9 14 18 21 21 21 22 23 22 21 21 21 21 22
25 39 59 68 63 78 97 99 99 95 83 72 77 87 76 61 52 50 45 31 33 38 24 16 15 15 17 22 23 23 25 31 39 43 40 39 46 51 49 46 47 53 53 45 39 38 41 41 40 39 36 33 27 21 20 22 21 17 16 18 22 24 25 23 19 15 11 9 9 9 9 9 9 10 9 9 8 8 9 7 6 5 9 15 21 24 23 20 19 20 20 20 20 22 23 23 23
22 34 61 70 58 66 88 99 100 97 90 79 85 94 91 80 58 50 44 27 34 38 21 15 17 17 17 21 23 21 22 26 33 42 42 39 45 48 46 47 50 49 42 34 31 32 34 36 38 37 33 30 23 15 13 16 16 14 13 14 18 19 20 19 16 14 11 9 8 8 8 8 9 9 10 10 10 10 9 6 6 7 12 19 24 26 25 22 20 19 18 19 21 23 25 25 23
20 29 53 60 55 63 77 93 100 96 93 87 88 93 98 91 63 52 45 28 36 39 21 16 19 20 17 19 24 22 22 23 27 38 41 39 43 46 44 49 50 42 34 31 28 27 29 32 32 27 21 20 16 10 9 11 12 12 11 12 13 13 14 14 12 11 11 10 9 8 8 8 8 8 8 8 9 12 11 9 9 12 17 21 23 25 26 23 20 19 19 19 22 24 25 23 22
22 26 39 46 54 69 74 83 92 91 94 94 92 93 98 92 72 61 46 34 42 41 26 19 22 24 18 18 24 23 23 22 22 28 33 31 33 38 40 45 46 35 27 27 28 26 24 23 22 18 12 11 9 7 8 9 10 11 10 10 10 9 9 9 9 8 8 8 8 9 10 10 9 8 8 7 9 15 19 17 16 18 20 20 21 24 25 22 19 19 20 21 23 24 24 22 20
28 31 35 39 52 70 74 76 81 84 90 95 96 96 97 92 81 65 43 41 49 43 31 22 24 28 19 17 21 23 23 22 21 22 25 24 25 30 34 40 40 31 25 25 28 25 21 18 14 12 10 9 7 6 7 8 8 9 9 9 8 8 8 8 7 7 6 6 6 8 11 11 11 10 10 11 11 15 20 22 22 23 22 20 19 21 22 21 19 19 20 22 23 24 25 22 19
28 33 35 40 53 63 67 72 72 77 85 90 94 97 95 92 88 70 48 46 53 53 39 23 26 30 22 18 19 22 23 23 23 21 21 22 22 24 27 33 34 27 23 25 27 25 21 18 13 11 10 9 8 7 7 7 7 7 7 8 7 7 7 7 7 7 6 6 6 9 11 12 14 14 13 14 15 16 19 21 23 25 24 22 19 19 21 23 23 21 21 22 23 25 25 23 21
31 35 32 39 61 66 60 68 72 74 82 86 92 99 97 95 95 80 60 52 53 63 51 23 25 32 24 20 18 21 24 24 24 21 22 22 21 23 23 25 26 24 23 25 26 25 21 17 14 12 10 9 9 8 7 7 6 6 6 6 6 6 5 6 6 6 7 7 8 11 13 14 16 16 15 14 15 16 19 22 23 25 25 23 20 19 20 22 23 22 22 22 23 25 25 24 22
37 41 37 38 65 77 63 71 86 82 82 88 91 97 98 98 98 82 67 62 54 61 57 28 22 30 25 21 19 20 24 24 24 22 22 22 20 21 22 22 22 23 23 25 25 25 22 18 14 12 10 10 9 8 8 8 7 6 5 5 5 5 4 4 4 5 6 8 11 13 15 17 17 17 16 16 16 16 18 21 22 23 24 23 20 18 19 19 19 20 20 20 22 26 27 25 22
41 44 47 47 66 81 71 75 94 91 83 89 94 96 96 96 97 84 71 71 62 56 57 35 21 28 28 26 23 18 21 23 24 25 23 21 20 19 21 20 20 22 23 23 23 23 22 19 15 12 11 11 9 9 9 8 8 7 5 5 5 5 5 4 4 5 8 11 14 17 19 21 21 20 21 22 22 21 21 23 24 24 23 22 21 20 20 20 20 21 20 18 20 24 26 25 22
47 53 58 63 70 79 79 75 87 93 84 87 97 98 97 97 99 93 80 78 71 57 52 38 25 27 31 34 30 19 18 20 21 23 22 20 20 18 19 18 17 19 20 21 20 20 21 18 15 12 12 12 10 10 9 8 9 8 7 6 6 6 6 6 7 8 11 14 16 19 21 22 22 21 23 24 23 24 24 25 28 28 27 25 24 23 23 23 24 24 21 19 20 22 24 23 21
60 70 70 71 73 78 82 74 75 88 87 86 94 98 99 99 98 98 91 85 79 66 52 37 29 29 31 37 38 24 17 17 17 19 18 18 19 17 16 16 16 16 17 18 19 20 19 17 14 12 12 12 11 10 9 10 9 9 8 7 7 7 8 8 9 11 13 15 16 17 19 20 21 21 22 23 23 24 26 28 29 28 29 29 27 27 26 26 26 26 25 25 25 26 27 25 22
76 84 82 77 80 85 82 71 66 78 89 91 94 98 99 98 97 98 95 89 85 76 54 33 29 31 30 37 42 32 20 16 15 14 15 16 16 16 14 14 16 16 15 16 17 19 19 16 14 12 12 11 11 11 10 10 10 9 9 8 8 7 8 9 9 11 14 17 18 17 18 19 20 22 23 24 25 25 25 27 29 29 28 30 31 32 30 29 29 27 26 29 31 31 30 27 22
86 91 92 86 90 95 80 66 64 73 88 96 98 99 100 99 100 98 95 92 87 79 55 31 29 28 26 36 43 36 24 16 13 13 13 13 14 15 14 13 15 16 17 16 16 17 17 16 14 13 13 12 11 10 11 14 14 13 10 9 8 7 8 9 8 9 12 17 20 19 19 20 21 22 23 23 26 28 27 25 26 28 28 28 30 32 32 30 28 25 23 25 29 32 32 26 20
93 94 98 94 97 98 80 68 71 78 85 95 100 100 99 100 101 98 96 95 89 79 57 33 30 29 22 31 41 35 26 17 12 13 13 11 12 13 12 12 14 16 17 17 15 14 16 16 15 13 13 14 13 13 15 21 22 17 11 9 8 8 8 8 8 8 11 15 19 20 19 19 21 22 21 21 22 26 27 25 24 25 26 27 28 29 29 28 25 22 21 22 25 28 29 25 19
98 96 99 96 96 94 83 74 75 81 86 94 100 99 99 99 100 99 98 99 92 80 63 39 32 34 23 23 35 34 26 21 14 13 14 12 10 11 10 10 13 16 18 18 16 12 15 19 18 15 14 16 16 15 19 24 25 17 8 8 8 8 8 8 8 8 11 15 17 19 19 18 19 21 21 19 18 19 20 22 22 22 23 23 25 25 24 23 22 21 21 22 21 20 23 24 20
91 96 98 91 86 85 86 82 77 81 89 97 100 99 100 99 99 100 98 101 96 83 74 52 33 36 31 21 29 33 27 23 17 13 14 13 10 10 9 8 9 14 18 19 17 12 14 18 17 17 18 20 18 17 21 24 21 14 7 7 8 8 8 8 8 8 11 15 16 17 18 18 18 19 20 21 20 19 17 18 20 21 22 22 22 21 19 19 19 20 21 22 19 18 21 23 22
78 88 91 85 81 81 85 86 80 81 90 98 101 99 100 99 99 101 99 100 99 90 82 61 35 33 34 23 25 31 28 24 20 16 15 13 11 9 9 9 8 10 14 16 16 13 13 14 16 20 22 26 26 22 23 24 18 11 7 7 8 8 9 9 9 9 10 12 14 16 16 18 18 18 19 20 21 21 19 19 19 21 22 23 23 21 20 19 19 20 22 23 21 19 21 24 26
78 83 83 82 82 79 79 84 82 82 88 96 100 99 100 100 99 100 100 99 100 97 87 65 39 29 33 29 23 24 26 25 20 16 16 14 11 9 8 9 8 8 11 13 14 13 12 14 18 24 26 32 36 28 24 24 19 13 9 8 8 8 8 9 9 9 9 11 12 14 14 15 17 17 17 18 19 20 20 20 19 20 21 22 23 23 22 20 18 20 22 24 24 21 20 23 27
88 86 80 76 79 76 73 80 85 85 88 93 98 100 100 100 100 99 100 100 99 100 91 69 43 29 33 36 28 21 21 25 22 16 16 17 13 9 7 8 9 8 9 10 12 12 11 12 17 23 28 35 38 32 27 23 19 17 13 10 9 8 8 8 9 8 9 10 11 12 13 13 14 15 15 16 16 18 20 21 21 20 21 21 21 21 22 21 19 19 21 24 25 24 21 20 26
94 90 80 72 76 78 74 77 84 86 87 89 94 100 100 99 101 100 99 100 99 100 95 72 42 25 33 43 36 24 18 22 27 22 18 19 17 12 8 7 8 8 9 10 10 11 11 11 13 17 23 31 35 35 32 22 16 17 15 12 11 11 11 9 9 9 8 8 9 10 11 12 13 13 14 16 16 16 17 21 23 22 21 20 20 19 19 18 18 18 19 22 25 25 21 19 25
94 92 82 75 78 81 79 78 81 83 82 85 90 96 100 99 99 100 100 100 99 100 97 72 37 20 33 50 45 29 19 18 25 27 23 20 19 17 11 8 8 7 9 10 10 11 12 12 14 13 16 25 31 34 31 20 12 13 12 12 13 16 17 14 10 10 10 9 9 9 9 10 12 12 13 14 15 16 16 17 20 21 20 19 19 18 17 16 16 16 16 18 20 21 20 20 24
91 91 75 73 83 88 86 79 76 78 77 80 84 87 93 95 95 99 99 96 95 99 96 66 30 19 35 55 54 39 26 16 17 24 26 22 20 20 16 11 8 8 8 9 11 11 12 12 15 15 14 19 24 26 24 17 14 14 13 14 16 19 21 19 15 13 13 13 12 12 11 10 11 12 12 13 13 14 15 15 16 18 19 20 20 19 18 18 17 17 17 16 17 18 21 24 27
89 91 77 72 84 91 89 82 76 77 76 77 84 87 89 91 93 95 95 92 93 98 92 57 22 17 34 55 61 50 39 26 17 19 23 24 22 21 20 14 11 9 8 9 10 11 12 11 14 16 16 16 16 17 18 18 18 19 17 20 24 23 23 23 21 18 18 17 15 14 14 14 14 14 13 13 14 12 12 12 14 16 17 17 18 19 21 21 20 21 21 20 21 21 24 27 30
71 76 84 81 82 89 91 87 83 82 83 85 92 95 90 89 94 97 96 97 96 97 88 53 20 18 33 52 63 62 56 45 30 21 20 22 23 26 25 18 14 12 11 11 11 11 12 12 14 17 17 17 14 13 16 20 24 25 22 24 29 27 23 24 23 23 22 21 18 16 18 19 16 15 14 13 15 15 13 12 12 13 14 13 13 15 18 21 21 21 22 22 23 24 26 29 32
66 63 81 88 86 92 96 93 87 87 91 93 96 99 93 90 96 98 99 101 97 96 89 55 22 21 34 48 62 68 67 62 48 31 22 22 27 34 33 23 19 17 15 14 13 12 13 13 14 16 18 18 16 16 19 21 25 30 30 32 34 32 28 27 24 23 22 21 20 20 21 23 21 19 17 13 13 16 16 16 14 12 12 11 12 12 14 17 19 19 21 22 23 24 26 28 30
76 70 79 89 89 94 99 96 91 91 94 96 97 100 97 93 94 93 97 102 98 99 94 61 29 26 38 52 63 67 67 68 62 44 30 28 30 36 37 30 25 22 19 18 17 16 15 14 14 15 17 18 17 18 20 23 25 28 32 36 38 36 34 33 28 23 22 20 23 27 24 22 25 24 22 19 16 17 19 19 17 15 12 11 13 14 14 16 18 18 19 20 21 22 23 26 28
84 80 78 83 84 90 98 97 96 92 89 93 98 99 97 95 95 94 97 101 98 98 97 79 50 33 39 55 60 58 60 64 67 59 43 38 39 40 40 36 31 27 24 22 20 20 19 18 16 15 15 16 16 17 17 21 24 24 28 34 37 37 34 36 37 34 30 22 21 29 27 24 28 24 22 25 23 22 22 20 17 15 15 14 12 12 14 15 17 18 18 20 19 20 21 21 23
78 75 75 79 78 82 90 92 95 94 88 92 98 96 94 94 98 99 99 100 99 98 100 96 79 52 40 44 43 44 52 56 65 71 59 46 45 45 45 44 39 32 28 26 23 22 22 22 20 17 16 15 15 15 14 15 17 18 21 25 31 37 36 36 43 46 43 31 22 27 31 32 33 27 24 28 31 33 32 25 20 16 15 16 13 11 13 13 13 12 13 15 16 17 18 18 20
67 66 70 77 74 74 83 86 88 93 94 96 99 94 90 90 95 100 100 100 100 99 98 97 93 75 54 45 38 35 40 43 56 74 73 61 53 50 50 51 51 44 37 35 31 26 23 23 24 21 18 17 16 16 15 14 14 14 16 18 23 34 40 40 43 45 45 41 34 34 35 35 36 36 35 35 34 37 37 30 25 20 16 17 16 13 13 13 12 12 10 11 13 13 13 16 18
65 67 66 66 64 68 83 91 91 96 98 97 95 92 89 85 90 99 101 99 100 100 98 96 96 87 68 60 53 43 38 37 46 63 73 68 58 53 52 53 59 59 51 47 43 35 27 24 24 25 22 20 18 17 16 15 15 14 15 19 23 30 37 40 39 36 38 41 39 40 39 37 39 44 47 46 40 35 33 30 28 24 19 18 17 14 12 12 13 15 14 13 14 13 12 13 14
65 76 80 68 58 67 88 99 97 97 96 95 91 87 86 83 86 96 100 100 100 100 100 98 100 93 76 70 69 61 51 44 42 50 59 59 50 45 49 53 61 66 57 50 48 43 37 31 27 27 26 22 19 19 19 17 16 16 15 18 23 27 31 37 38 35 36 41 42 41 39 37 40 43 45 48 46 40 36 33 30 27 24 24 23 20 16 14 14 15 14 13 14 15 14 13 12
65 74 90 83 67 70 87 93 93 91 89 93 95 87 80 79 83 90 97 101 100 99 101 99 100 99 82 71 74 75 66 54 49 51 54 53 43 33 38 46 56 64 59 48 45 46 47 44 36 32 29 26 22 21 21 21 19 19 18 18 19 21 24 30 34 33 32 35 37 35 33 33 36 37 36 37 38 39 41 42 40 35 30 30 30 28 26 22 18 17 17 16 16 17 19 19 18
72 71 86 91 84 80 80 82 84 83 81 88 95 91 81 75 77 82 91 100 99 97 101 100 99 100 88 74 72 79 79 69 63 64 64 61 52 40 37 39 45 51 48 41 41 44 48 50 46 39 34 31 28 24 23 24 23 22 22 21 20 19 19 21 24 24 22 22 22 21 23 27 29 31 31 28 25 28 33 42 49 49 42 37 32 28 29 29 25 23 21 19 17 16 17 19 20
82 81 82 84 90 87 80 83 84 79 78 81 85 89 86 76 73 76 86 97 99 97 99 100 100 100 94 84 77 77 81 81 76 76 76 75 70 60 48 41 41 45 40 35 38 42 45 48 47 43 39 34 29 26 23 23 25 26 25 23 21 20 20 19 19 19 18 17 16 14 15 18 21 24 28 26 22 22 26 33 42 49 49 45 38 31 28 29 28 28 25 22 20 18 16 16 16
Wind_Speed
10 10 12 13 14 18 7 8 9 9 8 6 7 8 8 5 3 3 5 6 7 8 8 8 8 8 6 4 4 4 5 5 3 6 7 6 6 5 4 4 5 6 7 7 7 8 9 9 9 9 9 9 9 9 10 9 9 7 6 6 5 5 5 5 4 4 4 4 4 6 6 6 6 7 7 8 8 7 7 8 8 8 8 9 9 10 10 10 10 10 10 10 9 9 8 8 8
10 10 12 13 15 18 7 7 9 10 8 5 7 9 7 3 2 3 5 5 7 9 9 9 8 7 5 3 3 2 3 5 3 4 6 7 8 6 4 4 5 7 7 8 8 8 9 10 10 10 10 9 9 9 9 9 8 7 6 6 6 5 5 4 3 3 3 2 3 5 6 6 6 7 7 7 7 7 6 7 7 7 7 9 10 10 11 11 11 10 10 10 9 9 8 8 8
9 10 11 14 16 17 8 9 11 9 8 6 6 7 6 3 3 4 4 5 7 10 11 9 8 6 5 3 2 1 2 4 4 3 5 7 8 7 6 6 7 8 8 8 8 8 9 9 9 9 9 9 9 9 9 9 8 7 6 5 4 4 3 2 2 2 2 2 3 4 5 6 5 6 6 6 6 6 6 6 7 7 7 9 10 11 11 11 11 11 11 10 9 9 8 8 8
7 8 10 13 15 16 5 11 13 10 8 6 6 5 5 4 3 3 3 5 7 10 11 10 8 6 5 2 0 2 2 4 3 2 4 8 8 6 7 7 8 8 8 8 8 9 9 9 9 9 9 9 9 9 9 9 8 6 5 4 2 2 1 1 2 3 4 4 4 3 4 4 4 5 5 5 6 6 5 6 7 8 7 8 10 11 11 12 12 11 11 10 9 8 8 8 8
6 7 10 12 14 14 5 12 12 11 9 7 6 4 4 4 4 4 4 6 8 10 11 9 8 6 4 2 1 1 1 3 4 2 2 8 9 5 7 8 8 8 7 8 8 9 10 10 10 10 10 9 9 9 8 7 6 5 4 2 1 1 2 2 3 4 4 4 3 2 3 3 3 4 4 4 5 5 6 6 8 9 9 8 9 11 11 12 12 12 11 10 10 9 8 8 8
5 7 10 11 12 13 2 11 11 11 9 7 7 5 5 5 4 4 6 8 9 11 11 9 8 6 4 3 1 1 1 1 4 3 2 8 10 6 7 8 8 8 7 7 8 9 10 10 10 10 10 9 9 8 7 6 5 4 3 2 1 0 1 2 3 3 3 4 3 2 2 2 3 3 3 3 5 6 6 7 7 8 10 9 9 11 12 12 12 12 12 10 10 9 9 8 9
5 6 9 10 12 14 1 11 11 10 7 5 6 7 7 5 3 4 8 9 10 11 11 9 7 5 5 3 1 1 0 0 3 4 4 8 10 8 8 9 9 8 8 8 8 9 10 10 10 10 10 9 8 7 6 5 4 4 3 3 2 1 2 3 3 3 3 5 4 4 3 3 3 4 4 4 5 5 6 6 7 8 10 10 10 11 12 12 13 13 12 10 10 9 9 8 8
6 6 8 10 12 14 2 12 12 9 6 4 5 7 8 5 3 5 9 10 11 11 10 9 6 4 4 3 2 2 3 2 3 5 6 9 11 10 10 10 10 10 9 9 10 10 11 11 10 10 9 8 8 7 6 5 5 4 4 5 4 4 3 3 4 4 4 4 4 5 5 4 4 4 5 5 5 5 5 7 8 10 12 12 11 12 12 13 13 13 12 10 9 9 8 8 9
5 5 7 9 11 13 3 11 11 8 6 5 5 8 8 5 3 6 10 10 11 10 10 9 6 5 3 2 3 3 4 4 4 6 8 10 12 12 12 11 11 11 11 11 11 11 11 11 10 9 9 8 8 8 7 7 6 6 6 7 6 6 5 4 4 5 6 6 6 6 6 6 6 5 5 6 6 6 6 8 10 12 14 13 12 12 13 13 13 13 12 10 9 9 8 9 9
5 4 6 9 9 11 6 9 10 7 6 6 6 9 9 4 3 7 10 10 10 10 11 8 5 6 3 3 4 3 4 6 6 8 10 12 13 14 14 13 12 12 11 11 12 11 11 10 9 9 9 9 9 8 8 7 7 7 8 8 8 8 8 6 6 8 9 8 7 7 7 7 7 6 6 7 8 7 9 11 12 14 14 13 13 13 13 13 13 12 11 10 9 9 9 10 11
4 4 5 9 8 10 8 5 10 6 6 7 8 10 8 4 5 8 10 10 11 10 11 8 6 5 3 3 4 4 5 6 7 9 12 13 14 15 15 14 13 12 11 11 11 10 10 10 10 10 9 9 9 9 8 8 8 9 10 9 9 10 10 9 8 9 10 10 9 8 8 8 8 7 7 9 9 10 11 13 14 14 14 14 14 14 14 13 13 12 11 10 9 10 11 12 13
4 4 4 8 7 8 9 3 11 7 6 8 9 10 7 4 6 9 10 11 11 11 10 8 6 5 2 3 4 4 5 6 7 10 14 15 15 15 15 14 13 13 12 11 10 9 10 10 10 10 9 9 9 9 9 9 10 11 11 11 11 11 11 10 9 9 9 10 10 10 9 10 10 9 9 10 10 11 13 14 14 14 14 14 14 15 14 13 12 11 10 10 11 12 13 14 15
4 4 4 6 7 6 7 3 11 10 7 9 10 8 6 6 7 9 11 11 12 11 9 9 7 4 2 4 5 5 5 6 8 12 15 16 15 15 14 14 13 13 12 10 9 9 10 11 11 10 10 10 10 10 10 10 12 12 12 11 11 11 11 11 10 10 9 11 12 12 12 11 11 10 10 11 11 12 13 14 14 14 15 15 15 15 13 12 11 11 11 12 13 14 16 17 17
4 3 4 6 6 5 6 3 11 12 6 9 10 8 6 7 8 8 11 12 12 11 9 10 6 3 2 3 6 7 6 7 10 14 16 15 14 14 14 14 13 12 12 10 10 10 11 12 12 11 11 11 11 11 10 11 13 13 12 11 12 12 12 12 11 11 10 11 12 13 13 12 11 11 11 11 11 12 13 14 15 15 16 16 16 14 12 11 11 12 13 14 16 17 18 18 18
5 3 2 5 5 4 3 1 11 14 7 8 9 9 8 8 9 9 10 11 13 10 8 9 6 3 3 3 6 8 7 10 13 15 15 15 14 14 14 13 13 12 11 10 10 11 12 12 12 12 12 12 11 11 11 11 13 14 13 12 12 13 13 12 11 12 11 11 11 12 12 11 11 11 11 11 12 13 14 15 16 16 17 16 15 13 12 12 13 14 17 18 19 19 19 19 19
8 5 2 4 4 3 2 3 8 15 7 8 9 10 9 8 10 10 10 9 11 11 7 7 6 4 3 3 6 9 10 13 14 14 15 15 14 14 14 13 12 12 11 11 11 11 12 12 12 12 12 12 12 12 11 12 13 14 13 12 12 12 12 11 11 12 11 12 12 12 11 11 12 12 12 12 13 14 15 16 16 17 17 15 14 14 14 15 16 17 19 21 21 20 20 19 18
9 7 4 4 4 4 2 3 6 13 7 8 10 11 11 9 9 10 11 8 8 11 8 6 6 5 4 3 6 10 12 14 14 14 14 14 14 13 13 13 12 12 12 12 12 12 12 13 13 13 13 13 13 13 12 13 13 14 13 11 11 12 12 12 11 12 12 12 13 12 11 12 12 12 13 14 15 16 16 17 17 17 16 15 14 15 17 17 18 19 20 21 21 20 19 18 17
10 9 6 6 5 4 3 3 6 11 7 9 10 12 13 11 10 10 10 8 7 10 9 5 6 7 5 3 6 10 13 14 14 13 14 13 13 13 13 13 13 13 13 13 13 12 12 13 13 13 13 13 13 13 14 14 14 13 12 11 12 12 12 12 12 12 13 13 12 12 12 13 13 14 14 16 16 17 17 18 17 16 15 15 16 17 18 19 20 19 19 19 19 19 18 17 17
11 9 8 8 4 3 4 4 6 11 8 8 9 12 14 9 10 9 8 9 7 8 9 6 8 9 5 4 6 9 12 14 13 13 13 13 12 13 13 13 13 13 13 13 13 12 12 13 13 13 13 13 13 13 15 15 14 13 12 12 13 13 13 13 13 13 13 13 12 12 13 14 14 15 16 17 17 18 17 17 16 15 16 17 18 18 19 19 19 19 18 18 17 16 16 16 16
12 10 9 9 6 3 3 3 10 12 8 8 8 11 11 7 7 8 7 9 8 7 8 7 9 10 6 5 7 9 12 13 13 13 13 13 13 13 13 13 14 14 13 13 13 12 12 12 13 13 13 13 13 13 14 14 14 13 12 12 13 13 14 14 13 13 13 13 13 13 14 14 15 16 16 17 17 17 16 16 16 16 17 18 19 19 19 19 18 18 17 16 15 14 13 14 15
13 11 8 8 7 3 2 8 12 12 8 8 10 11 10 8 8 7 6 8 9 7 6 7 9 11 8 7 8 9 12 13 12 13 12 12 13 13 13 13 13 14 14 13 12 12 12 12 13 14 13 13 13 13 14 13 13 13 12 12 13 14 14 15 15 14 14 14 14 14 15 15 16 16 16 16 16 16 16 17 18 19 19 19 19 19 19 18 18 17 16 15 14 13 13 13 14
13 11 8 8 7 5 5 7 9 10 8 7 10 12 11 10 9 6 5 6 8 9 7 8 8 10 9 8 9 9 11 13 12 13 12 12 13 13 14 13 13 13 13 13 12 12 12 12 13 13 13 13 13 13 14 13 13 13 13 13 13 14 15 16 16 15 15 15 15 16 16 17 17 17 16 16 16 17 18 18 20 20 20 19 19 18 18 18 18 16 15 14 13 13 14 14 14
14 12 10 10 7 6 8 8 8 8 7 7 8 11 13 12 10 7 4 5 7 8 8 9 8 9 9 8 9 10 11 12 12 13 12 12 13 14 14 13 13 13 13 13 12 11 12 12 12 12 12 13 12 13 14 14 14 14 14 14 14 15 16 17 17 16 17 17 17 17 18 18 18 18 17 17 18 19 20 20 20 20 20 19 19 18 17 17 17 16 14 13 13 12 13 14 13
15 13 12 12 9 7 10 10 9 8 9 7 7 11 13 11 11 9 6 6 7 7 8 9 9 9 9 8 9 10 11 13 13 14 12 12 13 13 14 14 13 13 13 12 11 11 12 12 12 12 13 13 12 13 14 14 14 14 15 14 15 16 16 17 18 18 18 18 19 19 20 20 20 19 19 19 20 20 21 20 20 19 19 19 18 17 16 16 16 16 15 14 13 12 12 12 13
16 13 12 13 11 9 11 12 11 11 12 9 8 12 14 11 10 11 9 7 7 8 8 9 9 9 9 9 9 10 12 13 14 15 13 12 13 13 14 14 13 13 12 12 11 12 12 11 11 12 13 13 12 13 13 14 14 14 15 15 15 16 16 17 18 18 19 19 19 20 20 21 21 20 20 20 20 20 20 20 19 19 19 19 18 17 16 15 15 15 15 14 14 13 12 12 12
17 16 14 13 13 13 12 13 14 14 14 11 10 12 16 14 9 9 10 9 8 9 8 8 9 9 10 9 8 10 11 13 13 15 14 13 13 13 14 14 13 12 12 12 11 11 11 11 11 12 12 12 12 13 13 13 14 14 14 14 14 15 16 16 17 18 19 19 19 19 19 19 20 19 19 19 19 19 19 19 19 18 18 17 17 17 16 15 15 15 15 15 14 14 13 12 11
18 18 18 14 14 15 12 12 14 15 15 13 12 15 18 14 9 8 9 9 8 10 9 8 9 10 11 10 8 8 10 11 13 15 15 13 13 13 13 14 12 12 12 12 11 11 11 11 11 11 11 11 12 13 13 13 14 14 14 13 13 14 15 15 16 17 18 18 18 18 18 18 18 18 18 18 18 18 19 19 18 17 16 16 16 16 16 15 15 15 14 15 14 14 14 12 11
20 20 20 17 15 16 13 12 13 13 15 15 14 18 18 15 13 10 11 11 9 10 10 9 8 10 11 11 9 8 8 10 11 13 14 14 13 13 13 13 12 11 11 11 11 11 11 10 10 11 11 11 12 13 14 13 14 13 13 13 12 13 13 14 14 15 16 17 17 16 17 16 17 17 17 17 17 18 18 18 18 16 15 14 15 16 16 15 15 15 15 15 15 15 14 12 11
21 20 20 20 19 17 14 13 13 13 15 17 17 20 19 18 16 12 12 13 11 11 11 11 9 10 12 11 10 8 8 9 10 12 13 14 13 13 12 12 11 11 11 10 10 11 10 10 11 11 12 12 12 13 14 13 14 13 13 13 13 12 12 12 13 13 14 15 15 15 15 15 16 16 16 16 17 17 17 17 16 15 14 14 15 16 16 15 15 15 15 15 15 15 14 12 10
21 22 22 21 21 19 16 15 15 15 16 18 20 21 20 19 18 14 12 12 12 11 11 12 11 10 12 12 10 9 8 8 10 11 12 14 14 13 13 12 11 11 11 10 10 10 10 10 11 12 12 12 13 13 14 13 13 13 13 13 13 12 12 12 12 12 12 13 14 14 14 14 14 15 15 15 16 16 16 15 15 14 14 14 15 15 15 14 14 14 15 15 14 14 14 13 10
21 22 22 22 21 20 18 17 15 15 16 19 20 20 19 19 19 16 12 11 12 13 12 13 13 12 12 13 11 9 8 8 9 11 12 13 14 14 13 13 12 11 11 11 10 10 10 11 11 12 12 12 13 13 14 13 13 13 13 13 12 12 12 12 11 11 12 12 12 13 13 13 13 13 15 15 15 15 15 15 14 14 14 15 14 13 13 13 13 14 14 14 14 14 14 12 10
22 22 22 23 21 19 20 20 17 16 17 18 20 21 20 20 20 16 13 11 12 14 14 14 14 13 13 13 13 10 9 9 10 11 11 12 13 14 14 13 13 12 12 12 11 11 10 11 11 12 12 12 13 13 13 13 13 13 13 13 12 12 12 12 12 11 11 11 11 11 13 13 12 12 13 14 15 15 15 14 14 13 13 14 13 12 12 13 14 14 13 13 13 14 14 12 10
22 22 23 24 23 19 21 22 17 17 18 17 20 22 21 22 21 18 16 13 12 14 15 16 15 14 13 13 14 12 9 10 10 11 11 11 12 13 14 14 14 13 13 12 12 12 12 11 11 12 12 12 12 12 13 13 13 13 13 13 13 13 12 12 12 11 11 11 10 11 12 13 12 12 13 13 13 13 14 14 13 13 12 13 12 12 12 13 13 14 13 12 12 13 13 12 11
22 24 25 25 24 21 21 20 14 14 18 17 20 23 22 21 21 19 17 15 14 14 15 16 17 15 14 14 14 13 11 9 10 11 12 12 12 13 13 14 14 14 13 12 12 12 12 12 12 12 12 12 12 12 12 13 13 13 12 12 13 13 12 12 12 11 11 10 11 11 12 13 12 13 13 12 12 12 13 13 12 12 12 12 11 11 11 12 13 13 13 12 11 12 12 12 11
23 24 25 25 23 21 21 20 15 13 17 19 22 25 24 22 22 21 18 16 16 16 15 17 18 17 16 15 14 14 12 9 9 10 12 13 13 13 14 14 14 14 14 13 13 12 12 13 12 12 12 11 12 12 12 12 12 12 12 12 12 12 12 12 11 11 11 11 11 11 12 12 12 12 13 12 11 11 12 12 12 11 11 11 11 10 10 10 12 12 12 11 10 10 11 11 10
24 23 24 24 23 21 21 20 17 15 17 21 24 27 26 24 23 22 21 19 19 19 17 17 19 18 17 16 14 14 13 11 9 8 10 12 13 13 14 14 14 14 14 14 13 13 13 13 13 12 11 11 11 12 12 12 12 13 12 12 12 12 12 12 11 11 11 11 11 11 11 12 12 12 12 13 12 11 11 12 12 11 11 11 10 10 9 9 10 11 11 10 8 8 9 10 10
26 25 23 24 23 21 21 21 19 15 17 23 27 28 27 27 25 23 24 23 21 20 17 16 18 19 18 17 15 14 14 12 10 8 8 10 13 14 14 14 14 14 13 13 13 13 14 13 13 13 12 11 11 11 12 12 12 13 13 13 12 12 12 12 11 11 11 11 11 11 11 12 12 12 12 12 12 11 11 11 12 12 11 11 10 10 9 9 9 9 10 9 8 7 8 9 9
28 27 26 25 23 22 23 22 18 13 15 21 27 31 29 28 27 26 27 25 21 20 17 15 17 19 19 18 16 15 14 13 11 9 8 9 11 13 14 14 14 14 14 13 13 13 14 14 13 13 13 12 11 11 12 13 12 12 13 14 13 13 13 12 12 11 12 12 11 11 12 12 12 12 12 12 12 12 11 11 11 11 11 11 11 10 10 9 9 8 9 9 8 8 8 7 7
30 30 27 25 24 24 23 23 20 13 12 17 24 30 31 30 29 28 30 27 21 20 18 16 18 20 19 19 17 15 14 14 13 11 10 10 11 13 14 14 14 14 13 13 13 14 14 14 14 13 14 13 12 12 12 12 12 12 13 14 14 13 13 13 13 12 12 12 12 12 12 12 12 13 13 12 12 12 12 12 11 11 11 11 11 11 11 10 9 8 8 9 8 9 9 8 6
31 30 28 25 24 25 24 22 21 15 12 17 24 31 33 32 31 30 30 28 23 21 19 17 19 22 21 20 19 17 15 15 15 13 11 10 11 11 13 14 14 14 14 13 13 14 14 14 14 14 14 14 13 13 12 11 12 12 13 14 14 13 13 13 14 14 13 12 12 12 12 13 12 13 13 13 13 12 12 12 12 11 11 11 11 11 11 10 10 9 9 9 9 9 9 8 6
30 30 29 27 25 25 24 22 22 19 15 15 19 29 34 33 33 31 31 30 26 24 21 19 20 23 23 22 22 20 18 17 17 16 13 11 12 12 12 13 14 14 14 13 13 13 14 14 14 14 14 14 14 13 13 12 11 12 12 13 14 14 14 13 13 14 14 13 12 12 12 13 13 13 13 13 12 12 12 12 11 11 10 10 10 10 10 10 9 9 9 9 8 8 8 8 7
28 28 29 28 26 25 25 24 22 21 17 13 14 23 29 30 31 31 31 31 28 26 23 21 22 23 24 23 22 21 20 19 18 17 16 13 12 13 13 12 13 14 13 13 13 13 13 14 14 14 14 15 14 14 13 12 12 11 11 11 12 13 13 13 12 12 13 13 12 11 11 12 12 12 12 12 12 12 11 11 11 11 10 10 10 10 10 10 10 9 9 9 8 8 8 8 7
25 27 29 29 28 26 25 24 22 21 18 15 14 19 25 28 31 33 33 33 31 29 26 24 24 23 23 23 22 21 19 19 18 17 17 15 13 14 14 13 13 13 14 13 13 13 13 13 13 14 15 15 15 14 13 13 12 12 11 11 11 12 12 11 11 11 11 12 11 10 10 11 10 10 11 11 11 11 11 11 10 10 10 10 10 10 10 10 10 9 9 8 7 7 7 7 7
25 27 28 29 28 24 23 23 22 21 20 18 15 17 23 27 31 34 36 35 34 32 29 26 25 24 24 23 22 21 19 18 18 17 17 16 15 14 14 14 14 14 14 14 14 14 13 13 13 13 14 15 15 14 13 13 12 12 12 11 10 11 10 10 10 10 9 10 9 9 9 9 9 9 9 9 10 10 10 10 10 10 10 10 10 10 10 9 9 9 9 8 7 7 6 7 7
26 27 27 28 25 22 21 21 22 22 21 20 18 17 22 26 29 34 38 38 36 34 31 27 25 25 24 24 22 21 20 19 19 19 18 18 17 15 15 15 15 15 15 15 15 14 14 13 12 12 13 15 15 15 14 13 12 12 12 11 10 10 10 9 9 9 9 9 8 8 8 8 7 7 7 8 8 8 9 9 9 10 10 9 9 9 9 9 9 9 8 8 8 7 7 7 7
25 25 26 25 22 20 21 20 21 22 21 19 19 18 20 25 30 34 38 39 36 33 31 27 26 26 26 25 23 22 20 19 19 19 20 20 19 17 16 15 15 15 15 15 15 15 15 14 13 12 13 14 15 15 15 14 13 12 12 11 11 10 9 9 8 8 8 8 8 8 8 7 7 6 6 7 7 7 8 8 8 9 9 9 9 9 9 9 9 8 8 8 8 7 7 7 7
24 24 25 24 21 20 20 19 18 20 19 18 19 19 19 22 29 35 39 37 33 31 30 28 27 27 27 26 24 23 21 19 19 19 19 20 20 18 17 16 16 15 15 15 15 15 15 15 14 13 12 13 14 15 15 14 13 12 12 12 11 10 9 8 8 8 8 8 7 7 7 7 7 6 6 6 6 6 7 7 7 8 8 8 8 8 9 8 8 8 8 8 8 8 8 7 6
26 25 23 22 22 21 19 17 17 17 18 19 19 20 22 22 25 33 38 35 32 31 28 26 26 27 27 26 25 24 23 21 21 20 20 19 18 17 17 16 16 16 15 16 16 16 15 15 15 14 13 13 14 14 14 14 14 13 13 12 11 10 9 8 8 7 7 7 7 6 6 6 6 5 5 4 5 5 6 6 7 7 7 7 7 7 8 8 7 7 7 8 8 8 8 8 7
26 26 24 21 20 20 18 17 16 16 18 20 18 18 22 23 23 30 35 34 34 32 29 27 27 26 27 26 25 25 24 22 22 21 20 18 17 16 16 16 16 16 17 16 17 17 16 16 15 15 14 13 14 14 14 14 13 13 13 12 11 10 9 8 8 7 7 7 6 6 6 5 4 4 4 3 3 3 3 4 5 5 6 6 6 7 7 7 7 6 6 7 7 7 7 8 8
25 25 23 19 18 19 17 16 16 16 18 20 17 15 16 19 22 29 34 35 35 33 31 31 30 28 28 27 27 26 25 23 22 22 21 19 18 18 18 18 17 17 18 17 17 17 17 17 16 15 14 14 13 13 14 14 13 13 13 13 12 11 10 10 9 8 7 6 5 5 5 5 4 3 3 3 2 2 1 2 3 3 5 6 6 6 7 6 6 6 6 7 7 7 7 7 8
23 23 23 20 18 17 17 17 16 17 18 19 19 16 12 13 18 26 32 35 37 35 34 34 32 31 31 31 30 29 27 26 24 23 22 21 20 20 19 19 19 19 18 18 18 18 18 18 17 16 16 15 14 13 13 13 13 13 12 12 12 12 11 11 10 9 7 6 5 5 5 5 4 4 3 3 3 3 2 2 2 3 3 5 6 6 6 6 6 6 7 7 7 7 7 7 7
22 23 24 21 19 19 18 18 18 18 19 18 19 18 14 11 12 22 32 35 36 35 34 34 33 32 33 33 31 30 29 28 26 24 23 22 22 22 21 20 20 20 19 19 19 19 19 19 18 17 16 15 15 14 14 13 13 13 12 12 12 12 11 11 10 9 8 7 6 6 5 5 4 3 4 4 4 4 3 3 3 3 3 4 4 5 5 6 7 7 7 7 7 7 7 7 7
22 22 20 19 21 21 20 21 20 20 19 17 17 17 16 11 8 16 29 33 33 32 32 33 33 33 33 31 30 29 28 28 27 26 24 24 23 23 22 21 21 20 20 19 19 20 20 20 20 19 18 17 16 15 15 14 13 13 13 12 12 12 11 11 11 10 9 8 7 7 6 6 5 4 5 5 5 5 5 5 4 4 4 4 4 5 5 6 6 6 7 7 7 7 7 7 8
19 17 16 20 23 22 21 22 21 20 19 18 16 15 14 10 7 9 22 29 31 31 32 33 34 34 33 31 29 28 26 26 26 27 26 26 25 25 24 23 22 21 21 21 21 21 21 20 20 20 19 18 18 17 16 15 14 14 13 13 12 12 11 11 11 10 9 9 8 8 8 7 6 6 6 6 6 6 6 6 6 6 6 5 5 5 5 5 6 6 6 6 6 7 7 7 7
19 16 17 22 25 24 22 19 18 18 17 16 16 16 14 9 7 6 13 22 27 30 32 34 37 37 34 31 29 28 27 25 25 26 27 26 25 25 25 25 23 23 23 23 22 22 21 20 20 20 20 20 18 17 17 16 15 14 14 13 13 12 12 11 11 10 10 9 9 9 9 8 8 8 8 8 8 8 8 7 7 7 7 6 6 6 6 6 6 6 6 6 5 6 6 7 7
21 20 21 23 24 25 24 18 15 16 13 10 11 15 16 12 9 7 7 15 21 25 27 30 36 39 36 33 31 30 28 26 25 27 27 26 25 23 24 25 25 25 25 24 23 22 21 20 20 20 21 20 19 18 18 18 17 16 15 14 13 13 12 12 12 11 11 10 10 10 10 10 10 10 10 10 10 10 9 9 8 8 8 7 7 7 7 7 6 6 7 6 6 6 6 6 6
21 22 21 21 21 23 24 19 16 15 12 9 8 10 14 15 12 9 6 12 19 20 22 24 31 37 37 34 32 31 30 28 27 28 27 26 25 24 23 24 25 26 26 25 22 21 21 21 21 20 21 21 22 21 20 20 19 18 17 16 15 14 14 13 13 12 12 12 11 11 11 11 11 11 11 11 11 11 11 11 10 10 9 9 9 9 8 8 8 8 8 8 8 7 7 6 6
24 23 21 20 18 19 22 19 16 14 12 12 10 8 9 13 14 11 7 10 19 17 19 23 25 30 33 33 32 30 30 30 29 29 29 29 28 26 25 24 25 25 25 22 20 20 20 20 20 20 21 22 24 24 23 22 21 20 20 19 18 16 16 15 15 14 13 13 12 12 11 11 11 11 12 12 12 12 12 12 12 12 11 11 11 10 10 10 10 9 9 9 9 8 8 7 7
Wind_Direction
359 359 356 352 353 357 5 159 170 178 165 150 138 134 137 134 136 121 108 103 103 102 99 97 94 98 89 75 87 105 123 120 142 144 139 138 123 108 108 118 123 120 117 117 119 120 118 120 123 123 121 117 111 105 101 98 99 101 107 115 124 127 129 132 135 138 136 141 147 138 135 141 146 152 153 154 152 148 142 135 132 128 125 129 133 135 137 138 136 136 135 134 134 135 139 141 136
356 359 356 354 356 357 344 189 182 183 171 150 142 140 140 146 154 124 116 115 105 101 98 93 96 104 99 95 95 97 128 124 141 148 140 140 128 119 120 121 120 116 118 121 123 124 123 124 124 122 118 113 106 100 98 99 104 111 116 119 121 124 127 132 137 139 134 152 167 151 150 157 155 156 159 156 151 145 141 138 136 133 130 133 137 136 136 137 136 136 136 136 136 138 141 137 129
353 356 354 358 1 357 334 196 185 184 174 154 145 137 132 154 158 132 128 121 102 94 98 99 99 98 92 109 129 122 120 122 133 145 144 129 117 120 121 116 115 115 120 124 124 125 124 123 120 116 111 106 104 102 105 108 113 116 115 115 114 120 126 135 149 154 163 202 201 174 161 164 158 155 158 154 148 143 143 144 142 141 140 140 138 133 134 137 136 136 137 137 137 138 136 131 129
348 354 357 0 3 5 17 167 174 177 170 160 140 127 126 145 138 119 122 116 97 88 96 99 98 93 81 68 137 173 141 125 125 140 150 117 102 108 113 111 112 113 119 123 124 125 123 120 116 112 106 102 102 104 108 109 109 108 104 101 103 123 162 193 220 204 200 214 211 189 167 168 165 162 159 149 147 148 152 154 150 151 151 144 134 131 133 134 133 134 136 135 136 134 131 132 134
345 356 0 3 5 14 67 156 167 172 167 162 138 124 126 130 131 120 103 97 91 85 89 91 91 92 88 80 29 236 170 134 126 130 178 113 102 102 109 112 111 113 119 122 123 122 120 118 115 113 109 107 107 109 110 108 107 108 108 111 125 189 232 233 235 221 215 226 224 220 191 170 169 177 169 152 155 159 163 160 156 154 149 141 132 131 131 129 130 132 133 134 134 131 131 134 138
350 0 3 6 6 14 75 172 170 172 167 161 140 129 130 129 141 127 97 86 85 83 82 83 86 93 97 93 80 275 288 161 122 121 188 116 108 114 120 121 117 119 123 126 125 120 118 115 114 112 110 107 105 105 103 103 102 100 102 103 103 172 243 226 224 224 223 224 210 207 194 158 164 170 161 162 169 164 163 160 155 150 143 137 131 129 128 128 131 133 133 134 135 133 134 136 141
346 2 3 4 5 9 322 188 172 169 161 152 134 131 137 137 150 111 94 88 84 83 80 78 78 90 95 91 122 169 141 142 113 125 164 123 116 128 132 129 125 129 134 136 131 122 118 114 114 112 109 106 102 101 102 102 98 91 92 97 105 137 194 204 200 194 192 200 185 163 154 152 157 147 145 160 157 148 152 148 139 138 136 133 130 129 130 133 135 135 135 134 133 134 138 139 139
337 357 2 4 7 6 319 190 171 158 146 137 125 127 135 135 145 108 95 93 89 84 79 76 64 62 82 105 159 152 132 113 119 140 146 123 122 133 134 130 129 137 143 142 135 126 120 115 114 112 110 109 109 108 106 106 107 107 106 114 126 141 159 179 173 161 156 161 141 128 133 139 136 132 140 145 134 135 141 133 130 134 133 130 131 134 137 138 138 138 136 133 131 134 137 136 132
327 349 4 8 9 8 16 184 169 148 134 130 123 117 124 128 142 110 95 92 91 89 80 73 61 48 62 119 128 134 133 121 136 147 133 123 126 132 132 129 134 143 147 143 135 126 119 116 115 112 110 109 108 106 105 109 114 115 115 121 129 132 125 118 130 127 111 101 100 110 120 120 119 122 128 126 122 134 136 131 133 134 132 131 135 138 139 139 139 139 137 134 131 132 130 126 123
316 346 8 9 8 13 34 179 172 144 125 127 123 111 119 136 129 98 90 88 84 86 80 66 57 56 55 115 114 130 129 124 144 142 127 126 129 131 133 134 141 145 144 138 129 122 116 115 114 109 107 104 101 99 102 106 109 110 111 114 113 107 98 91 103 105 97 97 101 105 108 106 106 111 118 121 126 135 133 131 132 131 133 135 137 138 137 138 139 141 140 136 131 126 122 119 115
310 338 1 2 5 12 19 186 179 149 124 125 117 112 129 144 116 97 89 89 82 78 78 65 51 59 72 112 112 121 117 125 146 138 127 127 130 132 136 139 142 140 137 131 123 119 116 113 110 107 104 98 94 95 99 103 105 103 98 95 92 89 86 82 88 97 98 101 106 103 102 101 101 110 120 125 129 130 126 125 128 130 134 134 134 134 134 137 139 141 139 134 127 118 115 114 110
281 303 339 359 5 11 15 186 185 169 140 125 114 119 142 140 114 104 90 86 83 76 76 71 52 49 90 127 118 110 113 131 142 134 128 129 133 135 139 140 138 134 131 126 120 117 112 107 104 103 100 95 93 95 99 102 98 93 90 88 87 87 87 84 85 92 98 104 110 109 107 108 112 124 128 124 124 121 120 122 126 130 131 130 129 129 130 133 134 134 132 126 118 111 110 110 109
255 284 323 353 360 11 30 124 187 189 159 123 116 125 142 131 118 106 93 86 81 75 73 69 49 43 129 145 124 113 119 136 136 132 130 131 135 136 138 136 133 130 125 121 117 113 108 105 103 101 100 97 95 95 98 98 94 91 91 92 92 94 93 91 91 92 98 108 113 113 114 118 122 127 123 117 117 116 120 123 126 127 126 125 125 125 127 127 126 125 123 117 111 108 108 108 108
246 282 331 346 345 356 36 114 188 202 178 125 124 133 136 132 119 100 96 92 86 77 75 72 45 36 127 146 128 122 128 132 133 132 130 131 133 133 133 131 129 124 121 120 118 112 108 106 104 102 100 98 95 95 95 96 99 98 96 95 98 100 98 96 97 95 95 102 107 110 113 115 115 113 110 112 116 119 122 122 123 122 122 123 124 123 123 121 120 119 116 111 108 108 108 108 109
232 241 329 337 339 352 21 114 199 210 191 128 134 138 134 131 114 96 92 94 93 82 74 82 62 49 96 138 132 125 131 131 132 132 130 130 131 130 129 127 124 121 121 121 116 111 108 106 104 100 97 97 96 95 93 96 99 99 98 98 99 99 97 96 100 98 95 97 98 101 102 101 100 100 103 110 117 119 119 119 119 120 122 124 123 121 120 118 117 115 113 110 109 108 108 108 108
226 210 233 305 342 359 340 345 228 216 182 129 140 135 130 129 114 102 96 91 98 93 76 85 86 77 86 141 138 126 133 134 134 133 131 131 131 130 127 125 123 124 125 121 114 110 108 105 102 98 96 98 98 96 94 94 95 97 97 97 95 94 93 94 97 97 99 100 97 96 96 96 97 98 104 112 116 116 116 116 118 121 124 123 122 120 118 116 114 112 111 110 110 109 108 107 106
222 206 215 263 322 342 292 347 241 212 161 131 145 131 131 132 113 103 102 90 93 104 95 91 97 87 86 155 142 128 134 135 135 134 131 132 131 130 127 126 126 125 123 118 113 109 106 103 99 97 98 100 100 99 96 92 91 92 93 91 89 90 91 91 93 96 99 97 93 94 97 99 100 102 106 111 114 115 115 117 120 123 122 121 119 117 114 112 111 109 109 110 110 109 109 108 106
222 212 219 251 297 330 271 297 226 197 158 147 149 136 140 136 119 107 106 104 98 107 108 105 105 96 99 161 145 133 137 135 136 135 133 134 132 131 129 126 124 121 118 114 111 106 102 100 97 97 100 101 102 102 99 95 93 91 89 89 89 87 86 84 85 89 92 92 91 96 99 100 102 103 105 109 112 114 117 120 122 121 119 117 114 111 110 109 108 108 109 109 108 109 109 108 106
223 217 227 243 269 314 276 282 198 183 170 160 151 144 145 131 123 118 110 114 105 105 113 117 111 106 118 157 144 137 139 137 137 135 133 134 133 131 127 123 120 116 113 109 105 101 97 97 97 99 100 102 103 102 100 98 96 91 86 86 86 84 81 80 82 86 89 92 94 98 102 103 105 106 108 110 113 115 118 119 118 116 115 113 110 108 107 107 107 106 106 106 105 106 106 107 106
223 219 229 238 239 277 271 174 173 178 169 164 157 148 146 130 124 118 110 112 102 97 107 117 118 117 130 152 142 139 138 138 138 134 133 134 132 129 124 121 117 113 111 106 100 97 96 97 100 100 100 102 103 102 100 99 95 91 86 83 82 81 80 82 85 90 93 95 97 100 104 106 108 110 112 113 115 117 118 117 114 112 112 111 109 107 105 104 104 103 102 101 99 99 100 104 106
219 217 226 237 228 223 165 151 165 176 167 165 159 150 148 140 136 128 122 121 117 114 104 111 121 126 139 149 141 142 139 139 138 133 134 133 129 126 125 123 116 111 110 106 101 99 98 100 102 103 102 102 103 103 101 101 98 95 92 89 86 84 85 88 91 94 96 99 101 104 107 109 111 113 114 115 116 116 115 114 113 113 111 109 108 106 105 103 101 100 98 97 96 97 97 99 104
213 214 219 230 213 163 150 156 171 184 173 166 164 158 152 144 147 147 137 121 119 125 117 111 119 132 147 154 146 147 142 140 139 134 135 134 127 124 124 122 115 109 108 106 105 102 102 102 103 105 105 103 103 104 104 103 102 99 98 97 95 92 91 93 95 96 98 102 105 106 109 110 111 112 113 114 114 113 112 112 112 112 110 107 105 105 104 102 99 97 95 95 96 98 100 101 104
209 208 216 226 212 166 166 180 191 199 187 179 180 167 154 150 152 150 140 121 113 121 124 115 116 135 150 157 151 145 141 140 139 133 135 135 128 124 121 120 115 110 108 107 106 105 105 103 103 105 105 103 102 103 104 104 104 104 104 102 100 97 94 95 97 99 100 103 105 106 107 108 109 110 111 112 111 110 110 110 110 108 107 105 104 104 102 100 99 97 94 92 92 94 98 102 106
209 205 218 225 215 181 179 190 193 201 209 205 200 175 161 159 152 149 153 142 123 121 126 117 116 137 148 157 152 142 139 140 138 132 134 134 128 124 119 117 115 112 110 108 108 106 105 104 105 105 102 100 99 100 101 102 104 107 107 105 103 100 97 98 99 99 100 102 104 105 105 105 106 106 107 107 107 107 107 107 106 105 105 104 103 101 99 97 98 97 94 90 89 89 93 100 105
211 206 220 223 215 200 187 194 196 202 214 216 214 185 168 172 159 152 160 154 138 127 130 122 119 137 145 154 154 143 140 142 138 132 134 133 128 125 119 118 117 113 111 110 110 108 106 106 105 103 100 99 98 97 98 100 103 105 105 105 105 104 102 102 101 100 101 102 103 104 104 103 103 103 103 104 105 105 105 105 104 103 104 104 103 100 98 96 96 94 92 90 87 88 92 97 101
213 208 216 216 214 214 198 194 201 210 214 207 213 195 178 182 169 156 160 156 145 130 135 131 126 141 142 148 154 143 139 141 139 134 134 132 128 127 122 120 119 114 110 109 109 108 108 107 103 101 100 100 98 96 97 99 102 102 103 103 104 105 105 104 103 102 103 103 103 102 101 100 101 103 104 105 106 106 106 105 105 105 106 105 103 101 99 96 93 91 91 90 89 89 91 93 95
219 211 215 217 218 221 210 197 201 216 220 210 207 194 187 190 175 166 163 155 150 135 137 136 135 147 141 142 151 143 137 142 142 136 136 135 132 131 126 124 122 116 112 110 108 106 106 107 105 102 100 100 101 99 100 101 103 104 104 103 102 102 103 103 103 103 103 102 101 100 99 98 100 103 105 106 107 107 107 107 107 107 107 105 102 100 97 93 90 89 89 90 91 91 90 89 90
220 215 219 223 226 225 216 207 206 220 224 218 211 191 189 194 181 178 171 161 159 143 140 141 145 152 142 140 148 148 142 143 143 137 136 136 133 133 129 128 127 120 116 112 108 105 106 110 108 104 102 102 104 103 104 106 107 109 108 107 104 100 101 103 103 102 102 103 103 101 100 100 101 103 105 107 107 108 109 109 109 109 107 104 101 98 95 92 90 87 87 89 90 89 88 87 85
218 217 221 224 229 226 217 216 216 223 221 216 213 196 192 197 187 188 182 166 163 153 147 146 153 157 143 139 147 150 146 143 142 139 137 137 136 137 135 134 133 127 122 116 109 107 108 111 110 108 107 106 107 108 108 110 111 113 114 112 109 105 104 105 105 104 103 104 105 104 103 102 103 105 105 106 108 109 110 110 111 110 106 102 99 98 97 94 91 88 88 89 89 89 87 82 78
218 217 218 221 229 225 217 220 221 223 219 215 214 201 195 196 187 190 190 171 162 157 154 153 157 162 148 140 147 148 145 145 146 144 140 140 141 142 141 140 139 134 128 123 115 111 111 113 113 112 111 111 111 110 110 111 112 115 117 115 113 111 110 109 108 107 105 107 108 106 103 102 104 107 108 108 109 111 112 112 111 109 105 102 101 102 100 94 88 88 88 88 88 89 86 79 70
221 220 218 219 225 223 217 220 224 222 216 213 213 204 199 197 186 184 189 183 168 158 161 161 160 165 154 142 146 147 145 149 150 148 145 144 146 145 145 145 144 140 135 130 124 118 115 115 116 115 115 115 113 111 110 111 112 112 113 114 114 115 113 112 110 109 109 110 110 108 106 106 108 110 111 111 111 112 113 113 112 111 108 105 105 105 100 89 84 85 86 88 89 89 86 79 70
222 223 222 220 220 219 217 221 225 220 216 213 210 206 202 198 190 184 187 195 180 164 165 167 164 166 159 147 146 147 150 154 152 151 150 150 149 147 148 148 147 147 143 138 133 127 122 120 119 118 117 115 114 113 113 113 112 111 110 111 113 113 111 110 109 109 110 110 108 108 109 109 109 108 107 108 110 112 113 114 114 113 112 110 108 106 98 88 83 82 84 88 91 91 87 82 75
219 222 223 223 219 216 220 229 229 211 208 212 209 207 203 198 197 192 186 192 189 174 169 171 169 166 165 155 149 150 157 160 155 155 156 155 152 150 151 151 150 150 147 144 140 134 129 126 123 121 119 117 116 116 116 116 114 111 110 111 111 109 107 108 109 109 110 110 107 107 109 111 112 108 105 107 111 112 112 112 113 114 113 111 109 107 101 94 88 84 82 85 90 92 90 85 80
215 221 223 224 221 219 226 236 237 211 203 207 209 205 201 199 199 195 188 188 191 186 176 174 170 166 169 165 156 155 161 167 161 160 163 160 155 152 154 155 153 151 150 149 144 138 132 129 128 125 122 121 120 120 119 117 114 112 112 111 110 109 109 108 110 111 110 108 107 108 110 113 114 112 110 111 112 113 111 110 112 114 113 113 112 109 106 103 97 92 89 89 92 93 91 89 86
213 220 224 227 225 223 228 232 232 223 208 204 207 202 199 199 197 195 195 191 191 193 186 178 172 169 171 170 167 163 162 170 169 164 163 162 159 156 155 157 155 153 152 151 147 141 135 133 132 130 128 127 125 122 121 120 119 117 116 113 113 112 110 110 112 112 109 108 107 108 110 111 111 112 111 110 109 111 112 114 116 118 118 117 115 112 109 106 103 100 98 97 97 98 99 99 97
210 216 221 226 228 224 226 226 224 227 219 208 205 202 200 198 195 195 199 198 197 197 191 183 176 172 173 173 176 173 164 169 175 165 160 162 161 158 156 155 156 155 153 152 149 144 140 138 137 134 133 132 128 123 123 125 125 124 121 119 118 116 113 114 116 114 111 109 109 109 111 112 111 111 110 109 108 110 114 119 122 124 125 122 118 115 112 109 106 105 104 103 100 100 106 110 110
207 212 216 221 226 224 222 220 218 224 226 213 203 201 200 197 197 200 200 202 204 201 193 186 181 177 177 176 182 183 170 168 174 165 157 162 162 159 158 156 157 157 155 152 150 147 145 143 141 137 135 132 125 121 122 125 128 128 127 127 124 120 119 120 119 116 113 110 110 111 112 111 110 110 111 112 111 113 118 123 125 127 129 128 125 123 120 116 114 113 112 110 107 104 106 112 116
206 210 214 216 219 219 218 217 214 220 229 219 206 202 200 198 200 201 200 202 207 204 195 188 186 185 182 179 185 189 176 168 170 166 159 159 161 160 159 159 160 159 156 154 153 151 148 145 142 139 136 132 127 124 124 127 128 128 128 127 126 125 125 124 121 117 113 111 111 111 110 108 107 108 110 113 113 115 118 121 124 128 131 133 134 133 129 125 125 126 123 118 116 114 113 114 117
207 211 215 218 215 213 215 215 212 219 227 219 211 205 201 198 199 199 198 199 207 208 201 194 191 191 188 182 185 191 181 171 167 168 165 155 157 163 161 160 162 161 159 157 156 154 150 145 142 141 138 136 133 129 128 129 128 126 126 126 128 130 129 127 124 120 115 114 113 112 111 109 107 106 108 110 113 115 117 119 123 129 134 137 138 137 135 133 133 134 132 130 126 124 123 121 118
208 212 217 222 218 212 214 215 213 217 219 216 214 208 203 198 195 198 200 200 206 209 210 208 197 192 192 185 183 189 186 177 170 168 170 159 156 166 166 161 162 164 165 163 160 154 149 146 143 142 141 139 137 133 132 131 128 127 128 128 131 131 131 130 127 125 122 120 118 117 115 112 110 108 107 109 112 115 117 120 123 129 133 135 135 137 138 138 138 140 140 139 134 130 127 126 128
210 214 218 223 222 215 212 214 215 214 217 227 220 207 204 200 195 198 205 205 205 206 211 214 203 195 195 189 183 188 187 182 175 168 170 168 161 168 173 167 163 165 166 164 161 155 151 149 147 146 146 143 141 139 138 136 131 130 130 130 131 131 131 132 130 129 129 127 125 123 119 116 113 110 108 108 109 112 114 116 120 123 126 127 129 133 137 139 142 145 146 144 140 136 132 135 143
211 215 219 222 224 217 212 213 215 215 219 234 228 208 206 205 199 199 204 206 205 209 211 210 206 202 200 193 187 191 190 184 181 173 171 173 169 170 175 174 168 164 163 163 162 160 156 154 153 152 150 149 149 148 147 144 140 135 132 130 129 129 130 131 131 132 132 130 130 128 124 120 116 113 110 108 108 108 109 112 115 118 121 122 124 128 135 143 148 150 151 150 147 142 142 147 152
212 217 219 223 224 220 214 213 215 219 223 231 230 215 209 210 207 202 203 207 210 212 212 209 208 205 201 197 192 197 195 186 185 180 171 172 175 176 176 178 175 167 163 163 163 163 160 160 160 158 155 155 156 156 154 152 148 144 139 134 130 128 127 128 129 132 131 130 131 131 129 125 121 117 112 110 108 107 107 110 113 115 117 119 121 126 136 146 151 154 155 152 148 148 152 154 152
213 219 220 223 225 222 217 215 218 223 227 232 234 223 214 213 214 208 204 209 213 213 213 209 208 206 202 198 194 199 200 189 186 184 175 174 180 181 179 180 180 174 169 167 166 165 163 164 166 162 160 160 161 162 160 157 154 150 146 141 137 133 129 129 131 133 131 131 133 134 132 129 126 122 117 113 110 110 111 113 114 115 117 118 122 128 137 145 150 154 156 153 153 158 158 154 153
214 219 220 224 227 225 221 219 222 226 231 237 239 233 222 215 216 213 209 211 214 215 214 207 205 205 202 198 194 197 201 195 188 186 181 179 182 184 183 182 182 179 176 175 173 170 167 170 172 167 165 165 165 165 163 160 159 155 151 149 147 143 140 140 139 136 132 134 138 138 135 133 131 128 125 120 117 118 119 119 119 117 118 119 121 126 133 141 147 151 153 154 157 159 156 154 159
214 219 220 222 224 224 223 222 224 228 235 240 241 241 233 221 218 217 215 216 216 215 212 204 202 205 201 197 194 194 200 200 195 192 188 184 183 183 184 185 184 181 181 180 179 178 174 176 178 175 172 170 169 168 165 163 161 158 156 157 156 154 153 152 149 141 138 140 140 138 137 136 137 140 138 134 132 131 129 128 126 122 121 123 126 129 134 141 145 147 150 152 154 154 155 159 168
213 219 220 221 223 222 223 224 227 232 238 237 233 237 240 233 226 221 220 220 214 209 207 203 202 203 200 196 195 194 196 201 202 198 196 192 186 183 185 186 184 182 183 182 183 184 182 181 182 181 180 176 173 172 169 166 165 162 162 165 164 163 162 160 158 153 149 148 143 138 137 136 139 145 145 144 146 145 142 138 136 134 132 131 132 134 138 143 147 149 152 154 153 154 158 168 180
209 213 214 219 223 222 222 225 229 234 234 227 221 225 236 240 233 225 222 218 210 204 203 204 204 203 200 196 196 196 195 199 204 202 201 200 191 184 186 189 186 183 185 184 184 186 186 185 185 185 184 182 177 176 175 174 172 169 170 172 170 170 170 168 168 166 160 157 153 144 139 139 142 145 146 148 150 150 146 144 146 148 145 143 144 144 143 146 150 154 157 159 161 164 167 175 187
206 211 210 216 222 220 219 225 235 238 231 225 221 225 237 243 236 227 221 213 209 205 201 202 203 203 202 198 198 200 198 198 204 205 203 201 194 186 186 190 189 187 188 188 186 186 188 189 189 188 187 185 182 179 180 181 179 176 177 178 176 176 177 175 176 175 171 169 166 155 149 153 153 149 151 154 154 149 141 144 155 158 158 159 159 158 156 156 157 161 164 166 172 179 179 183 195
207 211 210 216 223 219 217 224 238 244 233 225 227 234 243 245 238 229 221 212 207 204 201 200 199 200 201 200 199 201 200 200 204 207 204 200 198 193 188 190 192 193 193 192 190 187 189 191 192 191 189 189 187 183 183 185 184 181 181 182 182 181 181 183 182 179 177 177 175 170 170 171 167 164 167 164 164 162 152 163 175 170 167 171 177 174 169 170 171 171 173 175 180 187 189 195 205
212 214 212 219 226 221 221 225 235 247 242 232 233 238 246 252 242 227 216 207 204 202 201 200 199 198 198 199 200 200 199 199 202 207 205 201 202 201 195 192 195 197 197 198 196 192 191 193 194 194 193 192 192 190 189 189 186 185 185 185 187 186 185 188 187 183 183 184 179 179 186 188 181 181 186 183 180 180 190 208 209 202 184 179 185 185 181 185 189 187 185 184 186 192 198 205 213
215 215 213 221 228 225 226 229 234 244 247 242 241 242 248 263 250 220 208 203 203 204 204 203 202 201 199 200 201 199 198 197 197 203 207 206 205 205 202 197 198 201 201 203 203 199 195 196 197 198 197 195 195 196 197 196 190 188 189 189 189 189 189 192 192 188 188 189 188 188 194 198 198 204 208 202 197 194 211 228 226 225 219 202 197 197 195 197 202 202 198 196 197 201 206 212 219
214 214 217 225 228 224 227 232 233 235 240 244 244 243 246 262 260 213 204 204 205 206 208 209 208 206 203 202 204 202 199 196 194 197 205 209 210 209 207 203 203 205 204 205 208 207 203 201 200 201 201 199 199 199 200 202 199 194 194 193 193 192 192 195 198 196 194 194 194 194 198 203 206 215 222 220 215 208 216 230 232 229 229 223 218 215 213 212 213 211 206 204 204 205 210 216 224
214 216 223 230 228 222 227 233 231 229 235 243 244 241 242 258 275 221 205 206 208 209 212 214 214 211 206 203 205 206 201 197 195 195 201 208 210 210 209 207 207 208 208 207 210 212 210 207 205 205 206 205 202 202 202 204 205 202 201 201 200 198 198 201 203 202 201 200 201 202 204 206 205 211 221 227 229 225 223 228 232 233 231 231 233 232 229 227 226 226 222 219 215 211 213 219 227
207 209 215 224 224 219 221 225 225 226 235 246 249 246 243 250 273 251 206 203 205 206 211 216 216 214 210 204 205 208 206 200 196 196 201 207 210 210 208 208 209 212 214 212 213 218 217 214 210 208 211 212 208 206 205 207 210 209 208 209 208 207 206 208 210 211 210 207 208 212 214 212 210 214 221 225 229 233 234 235 236 235 233 233 237 239 241 239 238 241 243 245 243 235 230 230 235
199 205 211 217 221 222 222 219 219 224 233 247 254 251 248 246 258 278 227 199 199 201 207 214 214 210 207 205 205 207 208 204 201 200 202 206 211 210 208 208 210 214 219 219 217 221 224 223 217 212 214 217 216 213 209 208 212 213 214 214 214 214 214 215 217 217 218 216 216 219 221 220 219 221 226 229 231 234 237 240 242 241 239 240 243 245 248 249 247 248 252 256 258 256 254 251 249
201 209 213 213 218 225 227 224 225 228 235 248 252 249 250 247 248 281 280 203 194 197 199 203 206 202 201 205 206 207 208 207 204 203 204 207 211 211 208 208 210 214 221 223 221 224 229 230 226 219 218 220 220 219 215 212 211 213 216 217 217 218 218 220 221 222 224 225 225 225 225 225 226 226 229 231 232 233 234 237 240 242 243 244 247 249 252 255 255 254 255 257 260 261 264 264 260
207 212 213 209 210 217 222 223 229 236 244 247 245 238 246 248 247 273 296 204 190 191 191 191 196 199 201 206 209 209 209 210 210 207 205 207 210 211 210 206 207 213 221 224 222 223 228 231 230 224 221 222 222 222 221 219 216 214 216 219 220 219 219 222 225 225 228 231 232 233 230 229 231 232 233 234 235 235 234 235 238 240 243 245 248 250 252 254 256 257 259 260 261 261 263 264 261